User: anonymous   Login
Location: Unspecified
(0.0000°N, 0.0000°E)
Time: 02:08:11
(UTC+00:00)
Language:

STARLINK-37088 - Orbit

View from above orbital plane
View from above orbital plane
View from above satellite
View from above satellite

Ground track
Ground track

The orbit is defined by the following mean orbital elements,

1 68322U          26145.58335647 +.00000000 +00000-0 +73808-3 0 00002
2 68322  53.1600 346.9954 0000983 110.7706 334.0839 15.34382426    08
Epoch (UTC): 25 May 2026 14:00:01
Eccentricity: 0.0000983
inclination: 53.1600°
perigee height: 462 km
apogee height: 463 km
right ascension of ascending node: 346.9954°
argument of perigee: 110.7706°
revolutions per day: 15.34382426
mean anomaly at epoch: 334.0839°

The dashed part of the orbit path shows where the satellite is in the earth's shadow,  

DLR